Location: Caltech
(34.1382°N, 118.1253°W)
Time: 22:30:34
(UTC-08:00)

RS-15 - Visible Passes

Search period start: 26 November 2014 00:00
Search period end: 06 December 2014 00:00
Orbit: 1898 x 2146 km, 64.8° (Epoch: 25 November)

Date Brightness Start Highest point End Pass type
(mag) Time Alt. Az. Time Alt. Az. Time Alt. Az.
26 Nov 9.2 17:33:40 10° WSW 17:43:05 32° NW 17:52:35 10° NNE visible
26 Nov 9.8 19:57:55 10° NNW 20:00:40 11° N 20:03:27 10° N visible
27 Nov 8.9 16:56:29 10° WSW 17:06:36 41° NW 17:16:47 10° NNE visible
27 Nov 9.7 19:18:52 10° NW 19:23:15 13° NNW 19:27:41 10° N visible
27 Nov 9.9 21:37:57 10° N 21:37:58 10° N 21:37:58 10° N visible
28 Nov 9.7 18:40:05 10° WNW 18:45:59 16° NNW 18:51:57 10° N visible
28 Nov 9.8 21:02:12 10° N 21:03:07 11° N 21:03:07 11° N visible
29 Nov 9.6 18:01:40 10° WNW 18:08:54 19° NNW 18:16:13 10° N visible
29 Nov 9.8 20:26:20 10° N 20:28:09 10° N 20:28:17 10° N visible
30 Nov 9.4 17:23:39 10° W 17:32:01 24° NW 17:40:29 10° NNE visible
30 Nov 9.7 19:49:25 10° N 19:50:35 10° N 19:51:46 10° N visible
01 Dec 9.7 19:10:32 10° NNW 19:13:03 11° N 19:15:36 10° N visible
01 Dec 9.9 21:25:47 10° N 21:26:20 11° N 21:26:20 11° N visible
02 Dec 9.7 18:31:27 10° NW 18:35:37 12° NNW 18:39:48 10° N visible
02 Dec 9.8 20:50:03 10° N 20:51:30 12° N 20:51:30 12° N visible
03 Dec 9.6 17:52:38 10° WNW 17:58:19 15° NNW 18:04:04 10° N visible
03 Dec 9.7 20:14:19 10° N 20:16:41 12° N 20:16:41 12° N visible
04 Dec 9.5 17:14:10 10° WNW 17:21:13 19° NNW 17:28:21 10° N visible
04 Dec 9.7 19:38:28 10° N 19:40:32 11° N 19:41:52 10° NNE visible
04 Dec 9.9 21:49:23 10° NNW 21:49:36 11° NNW 21:49:36 11° NNW visible
05 Dec 9.7 19:01:50 10° N 19:02:59 10° N 19:04:08 10° N visible
05 Dec 9.8 21:13:38 10° NNW 21:14:48 13° N 21:14:48 13° N visible
